Location: Prescott
(34.5400°N, 112.4680°W)
Time: 05:20:30
(UTC-07:00)

Amateur Radio Satellites - All Passes

Search period start: 26 February 2017 04:50
Search period end: 27 February 2017 04:50
Location: Prescott, 34.5400°N, 112.4680°W

Satellite Date Start Highest point End Downlink Frequencies (MHz)
Time Altitude Azimuth
BEESAT 3 26 Feb 05:16:06 05:18:55 19° 110° (ESE) 05:21:46 437.485
ITAMSAT 1 26 Feb 05:16:46 05:19:22 14° 297° (WNW) 05:21:57 435.822/435.867
KKS-1 26 Feb 05:27:59 05:30:10 13° 267° (W) 05:32:21 437.445
RS-15 26 Feb 05:29:26 05:36:39 18° 262° (W) 05:43:45 29.354- 29.394
XW-2C 26 Feb 05:38:24 05:39:55 12° 93° (E) 05:41:24 145.795 - 145.815
NUDT-PHONESAT 26 Feb 05:47:03 05:48:36 12° 93° (E) 05:50:08 437.300
LilacSat-2 26 Feb 05:54:55 05:57:52 21° 95° (E) 06:00:48 437.200
BEESAT 2 26 Feb 05:56:04 05:59:07 22° 111° (ESE) 06:02:12 435.950
STARS 26 Feb 05:59:30 06:01:40 14° 267° (W) 06:03:51 437.465
CUTE-I 26 Feb 06:29:00 06:34:14 50° 100° (E) 06:39:25 437.470
DOVE 4 26 Feb 06:29:04 06:33:52 69° 101° (E) 06:38:55 437.250
AO-7 26 Feb 06:31:35 06:35:28 14° 308° (NW) 06:39:21 .
ISS 26 Feb 06:36:25 06:38:55 20° 129° (SE) 06:41:25 437.550
KAITUO 1B 26 Feb 06:45:08 06:48:55 80° 101° (ESE) 06:52:38 145.475/437.950
XW-2A 26 Feb 06:46:25 06:46:46 10° 93° (E) 06:47:07 145.665 - 145.685
STRAND 1 26 Feb 06:49:14 06:54:13 55° 73° (ENE) 06:59:15 437.568
XW-2F 26 Feb 06:51:29 06:55:16 67° 284° (WNW) 06:59:00 145.980 - 146.000
BEESAT 3 26 Feb 06:52:58 06:56:19 27° 305° (NW) 06:59:43 437.485
XW-2D 26 Feb 06:56:46 07:00:29 53° 285° (WNW) 07:04:10 145.860 - 145.880
Tancredo 1 26 Feb 06:59:08 07:02:11 39° 132° (SE) 07:05:14 437.200
XW-2B 26 Feb 07:01:53 07:05:34 46° 285° (WNW) 07:09:11 145.730 - 145.750
XW-2C 26 Feb 07:10:43 07:14:13 35° 287° (WNW) 07:17:40 145.795 - 145.815
NUDT-PHONESAT 26 Feb 07:19:13 07:22:37 33° 287° (WNW) 07:25:59 437.300
SO-50 26 Feb 07:28:30 07:33:01 74° 61° (ENE) 07:37:28 436.795
LilacSat-2 26 Feb 07:29:08 07:32:01 20° 289° (WNW) 07:34:52 437.200
BEESAT 2 26 Feb 07:33:27 07:36:45 25° 306° (NW) 07:40:04 435.950
SEEDS 26 Feb 07:36:34 07:39:51 22° 96° (E) 07:43:07 437.485
UWE-3 26 Feb 07:45:59 07:47:53 12° 91° (E) 07:49:46 435.000/436.395/437.385
HO-68 26 Feb 08:01:44 08:08:52 68° 103° (ESE) 08:15:58 435.675
ZACube-1 26 Feb 08:05:20 08:06:36 11° 91° (E) 08:07:51 437.345
DOVE 4 26 Feb 08:09:30 08:11:01 11° 294° (WNW) 08:12:33 437.250
CUTE-I 26 Feb 08:10:16 08:13:49 18° 295° (WNW) 08:17:22 437.470
O/OREOS (USA 219) 26 Feb 08:11:20 08:15:09 25° 63° (ENE) 08:18:57 437.305
ISS 26 Feb 08:12:16 08:15:13 30° 323° (NW) 08:18:12 437.550
CUTE 1.7 + AOD 2 26 Feb 08:16:03 08:20:16 71° 283° (WNW) 08:24:25 437.475
XW-2A 26 Feb 08:16:31 08:19:38 32° 286° (WNW) 08:22:45 145.665 - 145.685
PRISM 26 Feb 08:24:39 08:27:32 19° 69° (ENE) 08:30:26 437.425
STRAND 1 26 Feb 08:30:57 08:33:40 14° 267° (W) 08:36:24 437.568
Tancredo 1 26 Feb 08:36:11 08:38:34 19° 328° (NNW) 08:40:57 437.200
CUBEBUG 2 26 Feb 08:44:41 08:49:28 81° 283° (WNW) 08:54:08 437.445
AO-73 26 Feb 08:50:41 08:54:50 35° 97° (E) 08:58:53 145.935
UNISAT 6 26 Feb 08:53:40 08:56:38 18° 67° (ENE) 08:59:39 437.425
TIGRISAT 26 Feb 08:53:51 08:56:38 16° 67° (ENE) 08:59:27 435.000
Oscar 11 26 Feb 08:56:07 09:00:03 34° 97° (E) 09:03:58 .
AAUSAT CUBESAT 2 26 Feb 08:57:34 09:01:40 74° 283° (WNW) 09:05:45 437.432
SEEDS 26 Feb 09:12:07 09:15:25 23° 289° (WNW) 09:18:43 437.485
UWE-3 26 Feb 09:20:04 09:24:37 52° 286° (WNW) 09:29:02 435.000/436.395/437.385
FO-29 26 Feb 09:38:13 09:44:34 36° 66° (ENE) 09:51:24 435.910
ZACube-1 26 Feb 09:38:44 09:43:11 55° 285° (WNW) 09:47:31 437.345
YUBILEINY 26 Feb 09:47:14 09:55:03 37° 86° (E) 10:02:49 435.215
O/OREOS (USA 219) 26 Feb 09:50:40 09:54:26 25° 258° (WSW) 09:58:12 437.305
HO-68 26 Feb 09:50:57 09:55:53 21° 299° (WNW) 10:00:50 435.675
PRISM 26 Feb 09:59:09 10:02:37 27° 263° (W) 10:06:06 437.425
DELFI C3 26 Feb 10:20:41 10:24:35 70° 283° (WNW) 10:28:28 145.870
AO-73 26 Feb 10:27:43 10:30:44 18° 292° (WNW) 10:33:43 145.935
TIGRISAT 26 Feb 10:28:43 10:32:55 40° 262° (W) 10:37:15 435.000
UNISAT 6 26 Feb 10:28:50 10:32:59 37° 262° (W) 10:37:14 437.425
Oscar 11 26 Feb 10:33:06 10:35:53 17° 292° (WNW) 10:38:39 .
LO-87 26 Feb 10:44:14 10:46:56 20° 96° (E) 10:49:39 145.935 - 145.965
AIST 2D 26 Feb 10:46:05 10:49:20 36° 75° (ENE) 10:52:38 435.315
DUCHIFAT 1 26 Feb 11:02:19 11:05:59 30° 72° (ENE) 11:09:42 145.980
ESTCUBE 1 26 Feb 11:05:29 11:08:45 20° 95° (E) 11:11:59 437.505/2401.250
EO-79 26 Feb 11:14:01 11:18:06 52° 74° (ENE) 11:22:14 145.935-145.965
FO-29 26 Feb 11:22:50 11:29:20 41° 264° (W) 11:36:28 435.910
NANOSAT C BR1 26 Feb 11:30:08 11:34:20 77° 75° (ENE) 11:38:34 145.865
POLYITAN 1 26 Feb 11:31:45 11:35:58 88° 77° (ENE) 11:40:16 437.675
QB50P2 26 Feb 11:34:48 11:39:01 78° 259° (W) 11:43:17 145.880/145.840
YUBILEINY 26 Feb 11:43:25 11:51:36 42° 283° (WNW) 11:59:50 435.215
BUGSAT 1 26 Feb 11:54:26 11:58:13 40° 73° (ENE) 12:02:04 437.445
LO-87 26 Feb 12:17:39 12:20:15 19° 289° (WNW) 12:22:51 145.935 - 145.965
Oscar 19 26 Feb 12:34:37 12:39:13 34° 70° (ENE) 12:43:50 437.125/150
DUCHIFAT 1 26 Feb 12:38:51 12:41:40 18° 265° (W) 12:44:32 145.980
50 SAT 26 Feb 12:40:20 12:43:43 50° 100° (E) 12:47:05 437.505
ESTCUBE 1 26 Feb 12:41:37 12:45:32 31° 289° (WNW) 12:49:27 437.505/2401.250
DX 1 26 Feb 12:48:51 12:52:54 37° 99° (E) 12:56:57 434.975-435.025
EO-79 26 Feb 12:53:46 12:54:08 10° 268° (W) 12:54:29 145.935-145.965
UKube-1 26 Feb 12:58:33 13:02:28 34° 98° (E) 13:06:24 .
SPROUT 26 Feb 12:59:58 13:04:16 75° 284° (WNW) 13:08:34 437.525
VELOX 1 26 Feb 13:01:11 13:05:32 60° 285° (WNW) 13:09:53 145.980
AO-85 26 Feb 13:11:10 13:14:54 43° 58° (ENE) 13:18:43 145.980
Gurwin Techsat 1B 26 Feb 13:28:50 13:34:05 65° 74° (ENE) 13:39:20 435.225
Tancredo 1 26 Feb 13:29:51 13:31:28 13° 28° (NNE) 13:33:05 437.200
BUGSAT 1 26 Feb 13:32:05 13:33:45 12° 267° (W) 13:35:25 437.445
AO-7 26 Feb 13:40:51 13:46:50 22° 57° (ENE) 13:52:48 .
Oscar 19 26 Feb 14:14:28 14:18:32 23° 264° (W) 14:22:36 437.125/150
DX 1 26 Feb 14:26:05 14:28:45 16° 293° (WNW) 14:31:25 434.975-435.025
UKube-1 26 Feb 14:35:22 14:38:13 17° 292° (WNW) 14:41:04 .
ISS 26 Feb 14:42:26 14:45:40 56° 41° (NE) 14:48:52 437.550
ITAMSAT 1 26 Feb 14:49:38 14:54:47 68° 74° (ENE) 14:59:59 435.822/435.867
AO-85 26 Feb 14:53:29 14:54:53 12° 251° (WSW) 14:56:18 145.980
PCSat 26 Feb 15:04:07 15:08:16 23° 106° (ESE) 15:12:27 145.827
Tancredo 1 26 Feb 15:04:52 15:08:05 73° 223° (SW) 15:11:15 437.200
ITUPSAT 1 26 Feb 15:07:35 15:12:18 58° 101° (E) 15:17:00 437.325
Gurwin Techsat 1B 26 Feb 15:12:12 15:14:23 13° 268° (W) 15:16:36 435.225
BEESAT 3 26 Feb 15:12:18 15:16:14 52° 59° (ENE) 15:20:06 437.485
BEESAT 26 Feb 15:13:13 15:18:00 69° 102° (ESE) 15:22:44 436.000
MOZHAYETS 4 26 Feb 15:22:41 15:26:41 29° 97° (E) 15:30:38
RS-15 26 Feb 15:24:30 15:31:45 19° 98° (E) 15:39:08 29.354- 29.394
AO-7 26 Feb 15:30:23 15:38:44 76° 254° (WSW) 15:47:07 .
KKS-1 26 Feb 15:46:03 15:47:17 11° 92° (E) 15:48:30 437.445
BEESAT 2 26 Feb 15:53:30 15:57:31 60° 60° (ENE) 16:01:29 435.950
NO-84 26 Feb 15:55:25 15:58:10 32° 126° (SE) 16:01:08 435.350 FM
STARS 26 Feb 16:17:13 16:17:24 10° 92° (E) 16:17:34 437.465
ISS 26 Feb 16:21:09 16:21:43 10° 234° (SW) 16:22:16 437.550
CUBESAT XI-V 26 Feb 16:26:06 16:29:35 21° 95° (E) 16:33:02 437.345
ITAMSAT 1 26 Feb 16:33:00 16:34:39 11° 268° (W) 16:36:19 435.822/435.867
PCSat 26 Feb 16:46:18 16:51:21 40° 301° (WNW) 16:56:28 145.827
ITUPSAT 1 26 Feb 16:47:26 16:49:35 13° 296° (WNW) 16:51:45 437.325
BEESAT 3 26 Feb 16:52:51 16:53:19 10° 253° (WSW) 16:53:47 437.485
BEESAT 26 Feb 16:53:53 16:55:08 11° 297° (WNW) 16:56:22 436.000
MOZHAYETS 4 26 Feb 17:00:06 17:03:38 22° 291° (WNW) 17:07:09
KKS-1 26 Feb 17:19:44 17:24:06 54° 286° (WNW) 17:28:28 437.445
KAITUO 1B 26 Feb 17:22:16 17:25:11 21° 71° (ENE) 17:28:08 145.475/437.950
XW-2F 26 Feb 17:28:54 17:32:19 31° 73° (ENE) 17:35:45 145.980 - 146.000
RS-15 26 Feb 17:30:30 17:42:22 87° 117° (ESE) 17:54:45 29.354- 29.394
AO-7 26 Feb 17:30:38 17:32:33 11° 270° (W) 17:34:28 .
DOVE 4 26 Feb 17:31:46 17:35:38 40° 74° (ENE) 17:39:33 437.250
NO-84 26 Feb 17:33:39 17:35:54 17° 325° (NW) 17:38:18 435.350 FM
XW-2D 26 Feb 17:34:15 17:37:51 39° 74° (ENE) 17:41:28 145.860 - 145.880
XW-2B 26 Feb 17:39:16 17:42:55 44° 75° (ENE) 17:46:37 145.730 - 145.750
CUTE-I 26 Feb 17:47:14 17:52:26 58° 73° (ENE) 17:57:42 437.470
M-CUBED/EXP-1 PRIME 26 Feb 17:47:17 17:51:08 54° 105° (ESE) 17:55:17 437.505
XW-2C 26 Feb 17:47:49 17:51:38 60° 75° (ENE) 17:55:26 145.795 - 145.815
STARS 26 Feb 17:49:40 17:54:02 58° 285° (WNW) 17:58:23 437.465
NUDT-PHONESAT 26 Feb 17:54:30 17:58:11 58° 77° (ENE) 18:01:55 437.300
CUBESAT XI-V 26 Feb 18:02:55 18:06:55 30° 289° (WNW) 18:10:55 437.345
LilacSat-2 26 Feb 18:06:13 18:10:04 71° 259° (W) 18:13:57 437.200
HO-68 26 Feb 18:26:49 18:33:09 35° 66° (ENE) 18:39:29 435.675
SEEDS 26 Feb 18:27:04 18:28:03 11° 66° (ENE) 18:29:02 437.485
XW-2A 26 Feb 18:44:09 18:47:19 38° 74° (ENE) 18:50:30 145.665 - 145.685
KAITUO 1B 26 Feb 18:56:15 18:59:06 20° 265° (W) 19:01:58 145.475/437.950
STRAND 1 26 Feb 19:03:52 19:08:04 25° 96° (E) 19:12:13 437.568
XW-2F 26 Feb 19:04:31 19:06:31 14° 267° (W) 19:08:32 145.980 - 146.000
CUTE 1.7 + AOD 2 26 Feb 19:04:46 19:08:53 49° 75° (ENE) 19:13:01 437.475
XW-2D 26 Feb 19:11:09 19:12:12 11° 268° (W) 19:13:14 145.860 - 145.880
DOVE 4 26 Feb 19:11:59 19:13:33 12° 268° (W) 19:15:06 437.250
M-CUBED/EXP-1 PRIME 26 Feb 19:24:21 19:25:14 11° 297° (WNW) 19:26:09 437.505
CUTE-I 26 Feb 19:30:00 19:32:48 14° 268° (W) 19:35:37 437.470
CUBEBUG 2 26 Feb 19:38:51 19:43:08 52° 74° (ENE) 19:47:35 437.445
AO-73 26 Feb 19:43:11 19:46:18 19° 68° (ENE) 19:49:28 145.935
AAUSAT CUBESAT 2 26 Feb 19:43:54 19:47:49 42° 74° (ENE) 19:51:45 437.432
RS-15 26 Feb 19:46:34 19:56:33 29° 321° (NW) 20:06:50 29.354- 29.394
Oscar 11 26 Feb 19:48:10 19:51:07 18° 69° (ENE) 19:54:04 .
SEEDS 26 Feb 19:59:04 20:03:13 54° 260° (W) 20:07:23 437.485
YUBILEINY 26 Feb 20:03:51 20:07:50 14° 65° (ENE) 20:11:48 435.215
UWE-3 26 Feb 20:12:46 20:17:11 80° 78° (ENE) 20:21:47 435.000/436.395/437.385
HO-68 26 Feb 20:14:08 20:20:42 39° 261° (W) 20:27:18 435.675
ZACube-1 26 Feb 20:30:12 20:34:36 73° 77° (ENE) 20:39:09 437.345
STRAND 1 26 Feb 20:42:39 20:47:12 32° 290° (WNW) 20:51:43 437.568
CUTE 1.7 + AOD 2 26 Feb 20:43:42 20:44:56 11° 268° (W) 20:46:10 437.475
JUGNU 26 Feb 20:46:23 20:49:42 15° 171° (S) 20:53:02 437.505
DELFI C3 26 Feb 21:02:33 21:06:12 37° 74° (ENE) 21:09:51 145.870
AO-73 26 Feb 21:18:13 21:22:14 33° 263° (W) 21:26:21 145.935
CUBEBUG 2 26 Feb 21:18:37 21:20:03 11° 269° (W) 21:21:31 437.445
AAUSAT CUBESAT 2 26 Feb 21:21:47 21:23:26 12° 267° (W) 21:25:06 437.432
Oscar 11 26 Feb 21:23:02 21:26:57 33° 263° (W) 21:30:54 .
SO-50 26 Feb 21:38:58 21:43:33 55° 116° (ESE) 21:48:06 436.795
PRISM 26 Feb 21:43:09 21:47:07 48° 100° (E) 21:51:04 437.425
YUBILEINY 26 Feb 21:57:11 22:05:57 83° 83° (E) 22:14:38 435.215
ESTCUBE 1 26 Feb 22:03:00 22:04:56 13° 66° (ENE) 22:06:54 437.505/2401.250
RS-15 26 Feb 22:10:11 22:15:25 13° 356° (N) 22:20:38 29.354- 29.394
O/OREOS (USA 219) 26 Feb 22:19:30 22:23:51 55° 106° (ESE) 22:28:15 437.305
TIGRISAT 26 Feb 22:23:21 22:27:58 54° 99° (E) 22:32:29 435.000
UNISAT 6 26 Feb 22:23:33 22:28:12 60° 100° (E) 22:32:45 437.425
NO-84 26 Feb 22:33:41 22:34:22 10° 29° (NNE) 22:35:04 435.350 FM
JUGNU 26 Feb 22:34:02 22:37:59 19° 181° (S) 22:41:57 437.505
FO-29 26 Feb 22:36:45 22:43:43 42° 96° (E) 22:49:58 435.910
DELFI C3 26 Feb 22:39:23 22:41:06 12° 267° (W) 22:42:50 145.870
LO-87 26 Feb 22:49:14 22:52:45 86° 256° (WSW) 22:56:18 145.935 - 145.965
EO-79 26 Feb 23:04:30 23:05:47 11° 92° (E) 23:07:04 145.935-145.965
50 SAT 26 Feb 23:12:54 23:14:13 12° 68° (ENE) 23:15:32 437.505
NANOSAT C BR1 26 Feb 23:19:09 23:21:47 16° 94° (E) 23:24:25 145.865
PRISM 26 Feb 23:20:45 23:21:55 11° 294° (WNW) 23:23:06 437.425
POLYITAN 1 26 Feb 23:21:00 23:24:02 19° 95° (E) 23:27:04 437.675
SO-50 26 Feb 23:21:27 23:24:19 16° 311° (NW) 23:27:11 436.795
QB50P2 26 Feb 23:23:47 23:27:07 22° 96° (E) 23:30:26 145.880/145.840
SRMSAT 26 Feb 23:36:47 23:40:30 17° 172° (S) 23:44:13 437.500
ESTCUBE 1 26 Feb 23:36:51 23:41:15 52° 260° (W) 23:45:40 437.505/2401.250
DX 1 26 Feb 23:41:29 23:44:45 21° 69° (ENE) 23:48:01 434.975-435.025
AIST 2D 26 Feb 23:47:29 23:51:03 77° 103° (ESE) 23:54:33 435.315
SPROUT 26 Feb 23:49:33 23:53:39 50° 74° (ENE) 23:57:47 437.525
UKube-1 26 Feb 23:50:18 23:53:19 19° 68° (ENE) 23:56:20 .
VELOX 1 26 Feb 23:54:31 23:58:52 75° 77° (ENE) 00:03:15 145.980
YUBILEINY 26 Feb 23:56:43 00:01:32 16° 281° (W) 00:06:22 435.215
PCSat 26 Feb 23:57:20 23:58:21 10° 45° (NE) 23:59:21 145.827
O/OREOS (USA 219) 27 Feb 00:01:45 00:03:36 12° 302° (WNW) 00:05:28 437.305
TIGRISAT 27 Feb 00:01:57 00:04:06 13° 295° (WNW) 00:06:15 435.000
UNISAT 6 27 Feb 00:02:31 00:04:19 12° 295° (WNW) 00:06:06 437.425
NO-84 27 Feb 00:08:39 00:12:45 57° 45° (NE) 00:17:04 435.350 FM
FO-29 27 Feb 00:21:57 00:28:27 33° 294° (WNW) 00:34:24 435.910
JUGNU 27 Feb 00:23:10 00:26:16 15° 191° (S) 00:29:24 437.505
DUCHIFAT 1 27 Feb 00:24:35 00:28:52 87° 277° (W) 00:33:06 145.980
RS-15 27 Feb 00:25:42 00:34:58 23° 33° (NNE) 00:43:58 29.354- 29.394
EO-79 27 Feb 00:37:38 00:41:46 49° 286° (WNW) 00:45:53 145.935-145.965
50 SAT 27 Feb 00:43:52 00:47:01 31° 262° (W) 00:50:08 437.505
Oscar 19 27 Feb 00:50:46 00:53:46 16° 93° (E) 00:56:46 437.125/150
NANOSAT C BR1 27 Feb 00:53:41 00:57:34 34° 288° (WNW) 01:01:25 145.865
POLYITAN 1 27 Feb 00:56:04 00:59:48 30° 289° (WNW) 01:03:32 437.675
QB50P2 27 Feb 00:59:17 01:02:49 26° 289° (WNW) 01:06:21 145.880/145.840
BUGSAT 1 27 Feb 01:14:19 01:18:33 69° 284° (WNW) 01:22:46 437.445
DX 1 27 Feb 01:17:05 01:20:45 27° 263° (W) 01:24:26 434.975-435.025
SRMSAT 27 Feb 01:24:52 01:28:59 19° 182° (S) 01:33:05 437.500
UKube-1 27 Feb 01:25:18 01:29:06 30° 262° (W) 01:32:55 .
SPROUT 27 Feb 01:28:47 01:29:48 11° 268° (W) 01:30:50 437.525
PCSat 27 Feb 01:37:11 01:42:38 76° 64° (ENE) 01:48:02 145.827
NO-84 27 Feb 01:47:32 01:50:10 16° 238° (WSW) 01:52:51 435.350 FM
Gurwin Techsat 1B 27 Feb 01:48:56 01:53:44 34° 98° (E) 01:58:31 435.225
ITUPSAT 1 27 Feb 02:10:41 02:15:15 45° 73° (ENE) 02:19:50 437.325
BEESAT 27 Feb 02:15:55 02:20:33 52° 74° (ENE) 02:25:12 436.000
MOZHAYETS 4 27 Feb 02:21:36 02:24:55 20° 68° (ENE) 02:28:13
Oscar 19 27 Feb 02:28:22 02:33:19 50° 287° (WNW) 02:38:14 437.125/150
RS-15 27 Feb 02:37:41 02:50:01 75° 59° (ENE) 03:01:44 29.354- 29.394
ITAMSAT 1 27 Feb 03:06:25 03:11:04 32° 98° (E) 03:15:41 435.822/435.867
SRMSAT 27 Feb 03:14:28 03:17:26 14° 192° (SSW) 03:20:25 437.500
AO-85 27 Feb 03:21:51 03:26:09 36° 114° (ESE) 03:30:10 145.980
PCSat 27 Feb 03:23:49 03:25:17 11° 258° (WSW) 03:26:45 145.827
CUBESAT XI-V 27 Feb 03:26:56 03:29:30 15° 67° (ENE) 03:32:04 437.345
Gurwin Techsat 1B 27 Feb 03:29:10 03:33:29 25° 292° (WNW) 03:37:46 435.225
AO-7 27 Feb 03:36:14 03:44:10 47° 101° (ESE) 03:52:01 .
ITUPSAT 1 27 Feb 03:50:24 03:53:14 16° 266° (W) 03:56:06 437.325
BEESAT 27 Feb 03:56:21 03:58:34 13° 267° (W) 04:00:48 436.000
MOZHAYETS 4 27 Feb 03:57:34 04:01:47 34° 262° (W) 04:06:02
KKS-1 27 Feb 04:13:49 04:18:14 86° 72° (ENE) 04:22:40 437.445
M-CUBED/EXP-1 PRIME 27 Feb 04:31:12 04:34:06 30° 69° (ENE) 04:36:59 437.505
